CAPE
0 0 0 0 0 0 0 0 0 0 0 0 0 0 0 0 0 0 0 0 0 1 1 1 5 6 14
0 0 0 0 0 0 0 0 0 0 0 0 0 0 0 0 0 0 0 0 0 0 0 7 7 16 12
1 0 0 0 0 0 0 0 0 0 0 0 0 0 0 0 0 0 0 0 0 0 5 4 7 10 15
2 1 1 0 0 0 0 0 0 0 0 0 0 0 0 0 0 0 0 0 0 3 6 4 4 6 12
1 1 0 0 0 0 0 0 0 0 0 0 0 0 0 0 0 0 0 0 1 5 2 6 6 8 11
3 3 2 1 0 0 0 0 0 0 0 0 0 0 0 0 0 0 3 3 3 3 0 5 8 7 16
3 3 3 1 3 2 0 2 1 0 0 0 0 0 0 0 0 0 0 0 0 3 3 5 4 7 13
1 1 1 1 2 2 2 2 0 0 0 0 0 0 0 0 0 0 0 0 2 2 3 6 7 9 10
0 0 0 0 2 2 1 1 0 0 0 0 0 0 0 0 0 0 0 1 1 3 4 7 7 11 9
0 0 0 2 2 0 1 1 1 1 0 0 0 0 0 0 0 0 0 0 3 4 5 7 9 5 1
0 0 0 1 0 0 0 0 1 1 0 0 0 0 0 0 0 0 0 0 0 1 4 8 12 7 0
0 0 0 0 0 0 0 0 1 0 1 2 0 0 0 1 0 0 0 0 0 1 0 2 7 9 1
0 1 0 0 1 0 2 0 0 1 0 0 1 1 0 1 2 0 0 0 0 0 0 0 0 0 0
0 0 0 0 2 2 0 1 0 0 0 0 0 0 1 1 1 1 0 0 0 0 1 0 0 0 0
0 0 0 0 0 2 2 0 4 1 0 0 0 0 0 0 1 0 0 0 0 0 1 0 0 0 0
0 0 0 0 0 2 0 0 1 3 1 0 0 0 0 0 0 0 0 0 0 0 0 0 0 0 0
0 0 0 0 0 1 0 0 0 3 1 0 0 0 0 0 0 1 0 0 0 0 0 0 0 0 0
CIN
0 0 0 0 0 0 0 0 0 0 0 0 0 0 0 0 0 0 0 0 0 0 -1 -1 -1 -1 -1
0 0 0 0 0 0 0 0 0 0 0 0 0 0 0 0 0 0 0 0 0 0 0 0 0 0 0
0 0 0 0 0 0 0 0 0 0 0 0 0 0 0 0 0 0 0 0 0 0 0 0 0 0 0
0 0 0 0 0 0 0 0 0 0 0 0 0 0 0 0 0 0 0 0 0 0 0 0 0 0 0
0 0 0 0 0 0 0 0 0 0 0 0 0 0 0 0 0 0 0 0 0 0 0 0 0 0 0
0 0 0 0 0 0 0 0 0 0 0 0 0 0 0 0 0 0 0 0 0 0 0 0 0 0 0
0 0 0 0 0 0 0 0 0 0 0 0 0 0 0 0 0 0 0 0 0 0 0 0 0 0 0
0 0 0 0 0 0 0 0 0 0 0 0 0 0 0 0 0 0 0 0 0 0 0 0 0 0 0
0 0 0 -1 0 0 0 0 0 0 0 0 0 0 0 0 0 0 0 0 0 0 0 0 0 0 0
0 0 -1 0 0 -1 -1 0 0 -1 0 0 0 0 0 0 0 0 0 0 0 0 0 0 0 0 0
0 0 0 -1 -1 0 0 0 0 -2 -1 0 0 0 0 0 0 0 0 0 0 0 0 0 0 0 0
0 0 0 -2 -3 -5 -5 0 0 0 0 0 0 0 0 0 0 0 0 0 0 0 0 0 0 0 0
0 0 0 -1 -6 -8 -18 0 0 0 0 0 0 0 0 0 0 0 0 0 0 0 0 0 0 0 0
0 0 0 0 -1 0 0 0 -1 0 0 0 0 0 0 0 0 0 0 0 0 0 0 0 0 0 0
0 0 0 0 -1 -2 -1 0 0 -3 -1 -1 0 0 0 0 0 0 0 0 0 0 0 0 0 0 0
-1 -1 0 0 0 -1 0 -1 0 -3 -6 -5 0 0 0 0 0 0 0 0 0 0 0 0 0 0 0
0 0 0 0 -1 -1 0 0 0 -1 -3 0 0 0 0 0 0 0 0 0 0 0 0 0 0 0 0
Wind_Speed
37 35 36 36 36 33 32 32 32 31 30 29 29 29 29 29 30 30 30 30 29 29 28 29 28 26 28
38 38 36 35 35 35 35 33 33 33 34 33 32 32 32 33 33 33 32 31 31 30 28 28 28 28 29
41 38 38 37 39 37 38 39 37 37 36 36 35 35 35 35 34 34 32 32 33 31 29 28 27 26 26
41 40 39 40 39 43 46 40 44 40 37 37 39 38 38 37 36 36 35 31 29 28 26 26 27 26 26
44 44 44 42 43 41 41 46 45 42 41 43 39 38 36 36 35 36 35 30 31 27 27 27 26 27 24
45 47 46 43 41 42 43 45 51 37 42 44 40 43 38 37 32 36 29 33 32 29 29 28 27 27 24
44 43 46 43 46 45 45 45 46 43 43 53 41 43 38 36 32 33 34 34 31 29 29 26 25 25 25
40 43 42 43 42 42 45 46 46 45 40 50 43 47 43 39 37 38 35 33 31 30 28 27 27 25 25
39 39 40 41 41 43 44 47 52 46 36 41 42 44 41 41 37 35 34 33 32 30 29 28 27 25 24
40 39 37 38 38 39 41 45 45 47 36 37 40 41 46 38 35 32 34 34 33 32 31 29 27 25 24
40 40 38 39 39 38 39 41 44 43 42 40 43 42 41 47 43 40 37 38 37 36 34 31 26 23 24
42 41 42 42 41 41 41 41 40 43 43 40 42 43 45 48 48 40 39 37 35 34 30 27 24 25 21
42 42 42 43 42 42 41 40 41 40 39 38 39 41 41 44 45 42 41 36 32 31 28 25 23 20 22
43 43 42 43 43 42 44 43 44 44 39 38 38 39 41 40 40 41 37 37 32 30 27 25 21 18 17
42 43 44 44 43 42 43 45 45 46 46 42 39 38 38 39 41 38 37 35 32 30 27 25 21 18 17
43 43 44 45 46 43 44 43 45 44 43 43 43 44 41 37 31 36 35 34 31 28 26 25 23 18 15
42 42 44 44 44 44 44 44 45 44 42 42 42 42 45 46 36 28 33 31 30 27 24 22 22 18 14
Wind_Direction
308 310 309 308 310 310 309 307 307 305 304 303 301 300 300 300 300 301 301 302 301 302 304 306 309 311 315
306 308 309 311 310 309 309 309 307 306 304 303 302 299 298 297 298 298 298 298 299 299 300 305 308 310 314
304 306 307 308 308 309 308 309 309 307 306 304 303 301 299 299 296 295 295 295 297 297 299 302 305 306 310
304 305 306 308 307 307 306 308 308 308 308 306 305 304 303 301 299 298 296 294 294 298 298 300 303 305 306
304 304 305 305 305 307 305 308 307 307 309 307 309 310 307 308 302 302 301 296 296 297 297 298 301 303 302
305 304 307 310 311 310 308 309 308 315 312 311 312 309 310 311 312 307 305 303 301 298 297 295 297 302 300
306 308 308 310 310 309 310 310 308 311 313 308 312 310 312 312 309 308 307 305 303 299 298 295 294 299 301
309 308 309 309 311 310 310 308 307 309 311 306 311 309 312 311 309 308 308 307 306 303 301 298 296 295 297
313 312 313 312 312 313 310 310 308 311 312 310 312 312 314 314 314 313 310 309 308 306 304 300 299 296 295
315 315 316 316 316 316 315 311 312 312 317 312 314 316 313 315 318 319 316 313 310 308 305 302 299 298 296
315 315 316 317 317 317 316 314 311 308 312 312 311 311 309 308 312 313 313 313 313 312 307 303 299 296 297
315 315 315 316 316 316 315 315 313 310 312 311 308 309 308 307 307 312 313 313 313 313 312 309 304 302 296
316 316 317 317 317 317 318 318 317 316 315 314 311 310 308 306 307 310 312 315 313 312 311 307 305 303 302
317 317 318 318 317 318 317 317 316 316 318 317 315 313 309 308 307 307 309 310 314 312 309 307 305 302 300
319 318 318 318 318 318 318 317 315 316 316 317 316 314 312 309 307 307 307 307 308 308 307 304 303 301 300
319 319 318 318 318 318 318 318 317 317 317 318 318 316 314 313 307 308 307 306 306 305 304 302 301 300 297
319 319 319 319 319 319 319 318 318 318 318 319 318 317 312 310 315 312 309 308 307 304 301 299 300 299 295